CEST,Max TemperatureF,Mean TemperatureF,Min TemperatureF,Max Dew PointF,MeanDew PointF,Min DewpointF,Max Humidity, Mean Humidity, Min Humidity, Max Sea Level PressureIn, Mean Sea Level PressureIn, Min Sea Level PressureIn, Max VisibilityMiles, Mean VisibilityMiles, Min VisibilityMiles, Max Wind SpeedMPH, Mean Wind SpeedMPH, Max Gust SpeedMPH,PrecipitationIn, CloudCover, Events, WindDirDegrees
2013-3-1,60,51,42,43,40,37,87,59,45,30.01,29.88,29.77,6,6,6,20,12,28,0.00,1,,314
2013-3-2,60,51,42,50,46,39,87,70,51,30.06,30.05,30.04,,,,7,5,,0.00,,,84
2013-3-3,57,55,53,54,52,50,94,86,82,30.01,29.97,29.92,6,5,2,15,10,,0.00,4,,32
2013-3-4,59,56,55,55,54,54,100,93,82,29.74,29.62,29.44,6,5,2,23,18,34,0.00,4,Rain,49
2013-3-5,57,52,48,57,55,46,100,96,82,29.44,29.39,29.33,6,3,1,14,7,,0.00,4,Rain,353
2013-3-6,68,59,50,57,54,48,100,75,59,29.65,29.51,29.42,6,6,6,14,8,,0.00,1,Rain,221
2013-3-7,66,60,53,59,56,50,94,86,73,29.77,29.72,29.68,6,6,6,18,5,,0.00,2,Rain,223
2013-3-8,69,61,53,55,52,50,88,64,53,29.83,29.78,29.71,6,6,6,20,8,31,0.00,1,,216
2013-3-9,69,61,53,57,54,50,88,75,49,29.83,29.78,29.74,6,6,6,20,9,,0.00,1,,224
2013-3-10,68,59,50,50,45,41,71,54,40,29.80,29.77,29.71,6,6,6,18,10,,0.00,1,,227
2013-3-11,68,60,51,52,45,39,72,54,37,29.83,29.78,29.71,6,6,6,18,11,30,0.00,1,Rain,219
2013-3-12,64,58,53,54,47,41,94,69,42,29.74,29.67,29.59,6,6,6,12,6,,0.00,2,Rain,234
2013-3-13,59,54,50,43,31,21,76,41,29,29.80,29.64,29.50,6,6,6,30,16,47,0.00,1,,293
2013-3-14,60,53,46,28,25,23,41,31,25,30.01,29.96,29.89,6,6,6,30,22,44,0.00,1,,307
2013-3-15,66,57,48,45,33,25,63,41,21,30.09,30.06,30.04,,,,18,10,23,0.00,,,254
2013-3-16,60,54,48,50,48,45,88,76,59,30.01,29.92,29.86,,,,9,3,,0.00,,,111
2013-3-17,66,56,46,55,51,45,93,77,60,29.65,29.57,29.50,6,6,6,20,5,30,0.00,1,,228
2013-3-18,66,58,51,57,49,37,88,66,35,29.74,29.70,29.62,,,,9,5,,0.00,,,150
2013-3-19,62,56,50,55,49,41,88,70,55,29.71,29.66,29.59,6,6,6,13,7,,0.00,1,,74
2013-3-20,69,60,51,50,41,36,88,47,28,30.09,29.89,29.65,,,,17,9,,0.00,,,309
2013-3-21,66,55,44,55,51,39,94,76,51,30.12,30.04,29.98,6,6,6,13,5,,0.00,1,,136
2013-3-22,68,57,46,54,49,45,93,68,46,29.83,29.77,29.68,6,6,6,14,4,,0.00,1,,191
2013-3-23,62,56,51,52,50,45,94,73,52,29.71,29.65,29.59,6,6,6,15,5,,0.00,1,,199
2013-3-24,69,62,55,43,38,34,63,41,28,29.77,29.65,29.56,,,,20,13,29,0.00,,,290
2013-3-25,69,58,48,48,39,32,66,42,30,29.92,29.86,29.80,6,6,6,16,11,29,0.00,1,,243
2013-3-26,69,62,55,54,51,46,77,61,43,29.80,29.72,29.65,6,6,6,16,8,,0.00,1,,217
2013-3-27,73,65,57,55,51,43,77,59,33,29.68,29.65,29.62,,,,20,12,20,0.00,,,220
2013-3-28,73,63,53,54,48,43,82,51,35,29.92,29.80,29.71,,,,16,6,,0.00,,,237
2013-3-29,71,66,60,54,50,46,72,54,43,29.95,29.90,29.83,6,6,6,17,9,,0.00,1,,219
2013-3-30,78,68,57,55,44,34,82,42,20,29.89,29.85,29.83,,,,13,8,21,0.00,,,309
2013-3-31,66,62,57,55,52,45,88,70,59,29.86,29.78,29.68,6,6,6,9,2,,0.00,1,Rain,197
2013-4-1,,,,,,,,,,,,,,,,,,,,,,